Location: Cantaing
(50.1487°N, 3.1675°E)
Time: 15:00:39
(UTC+00:00)

Cosmos 2084 Rocket - Pass Details

Date: 14 January 2026
Orbit: 541 x 571 km, 62.8° (Epoch: 18 February)

Event Time Altitude Azimuth Distance (km) Brightness Sun altitude
Exits shadow 06:01:12 17° 332° (NNW) 1,475 5.1 -15.4°
Maximum altitude 06:04:05 40° 36° (NE) 850 4.4 -15.0°
Drops below altitude 10° 06:08:05 10° 106° (ESE) 1,874 7.5 -14.4°
Sets 06:10:25 0° 114° (ESE) 2,771 8.8 -14.0°
